sat.trackr.live / text

‹ back to catalog

KUIPER-00231

NORAD 68580 · 2026-072H

PAYLOAD ACTIVE UNKNOWN

§ Identity

Operator
Country
US
Launch date
2026-04-04
Launch site
AFETR
Launch vehicle
Mass (kg)
RCS (m²)

External: N2YO · Heavens-Above · Gunter

§ Orbital elements

Epoch: 2026-05-25T02:41:02.556096Z

Period
93.67 min
Inclination
51.8766°
Eccentricity
0.0001999
Mean motion
15.37247173 rev/d
Perigee alt
452.9 km
Apogee alt
455.6 km
Semi-major
6,832.4 km
B*
6.3385e-4
RAAN
288.2782°
Arg perigee
303.3435°
Mean anomaly
56.7360°
Rev number
783

§ Raw data

KUIPER-002311 68580U 26072H   26145.11183514  .00023169  00000+0  63385-3 0  99942 68580  51.8766 288.2782 0001999 303.3435  56.7360 15.37247173  7833

JSON: /api/v1/satellites/68580 · /tle

For live sub-satellite position, see the globe view (requires WebGL).

§ Visibility from observer

Set your observer location to see the next 7 days of passes ≥ 10°. The values pass through the URL so the page stays shareable.

No JS? Fill the form by hand. The geolocation button needs JavaScript.